Weather History for EIDW - June, 2013

Change the Weather History Date:

Monday, June 24, 2013

  Actual Average Record
Temperature  
Mean Temperature 54 °F -  
Max Temperature 62 °F 65 °F 73 °F (2001)
Min Temperature 46 °F 52 °F 42 °F (1999)
Degree Days  
Heating Degree Days 11    
Growing Degree Days 4 (Base 50)    
Moisture  
Dew Point 45 °F    
Average Humidity 72    
Maximum Humidity 94    
Minimum Humidity 45    
Precipitation  
Precipitation 0.00 in 0.07 in - ()
Sea Level Pressure  
Sea Level Pressure 30.23 in    
Wind  
Wind Speed 11 mph ()    
Max Wind Speed 17 mph    
Max Gust Speed 28 mph    
Visibility 6.7 miles    
Events      
Averages and records for this station are not official NWS values.
T = Trace of Precipitation, MM = Missing Value Source: Averaged Metar Reports

Daily Weather History Graph

Daily Weather History Graph

Search for Another Location

Airport or City:

Trip Planner

Search our weather history database for the weather conditions in past years. The results will help you decide how hot, cold, wet, or windy it might be!

Date:

Astronomy

Jun. 24, 2013 Rise Set
Actual Time 4:57 AM IST 9:57 PM IST
Civil Twilight 4:04 AM IST 10:50 PM IST
Nautical Twilight 2:29 AM IST 12:25 AM IST
Astronomical Twilight Sun does not set Sun does not set
Moon 10:27 PM IST (6/24) 6:24 AM IST (6/24)
Length of Visible Light 18h 46m
Length of Day
17h 00m
Full, 98% of the Moon is Illuminated
Jun 24
Full
Jun 30
Last Quarter
Jul 8
New
Jul 16
First Quarter
Jul 22
Full

Hourly Weather History & Observations

Time (IST) Temp. Windchill Dew Point Humidity Pressure Visibility Wind Dir Wind Speed Gust Speed Precip Events Conditions
12:00 AM 50.0 °F - 44.6 °F 82% 30.15 in 6.2 mi West 12.7 mph - N/A   Partly Cloudy
12:30 AM 48.2 °F - 44.6 °F 87% 30.15 in 6.2 mi West 15.0 mph - N/A   Partly Cloudy
1:00 AM 48 °F - 45 °F 84% 30.17 in 19 mi WNW 15.7 mph - -   Scattered Clouds
1:00 AM 48.2 °F - 44.6 °F 87% 30.15 in 6.2 mi WNW 16.1 mph - N/A   Partly Cloudy
1:30 AM 48.2 °F - 44.6 °F 87% 30.15 in 6.2 mi WNW 17.3 mph - N/A   Partly Cloudy
2:00 AM 46.4 °F 40.4 °F 44.6 °F 93% 30.18 in 6.2 mi West 13.8 mph - N/A   Partly Cloudy
2:30 AM 48.2 °F - 44.6 °F 87% 30.18 in 6.2 mi West 13.8 mph - N/A   Scattered Clouds
3:00 AM 48.2 °F - 44.6 °F 87% 30.18 in 6.2 mi West 13.8 mph - N/A   Scattered Clouds
3:30 AM 48.2 °F - 46.4 °F 93% 30.18 in 6.2 mi West 12.7 mph - N/A   Scattered Clouds
4:00 AM 46.4 °F 41.1 °F 44.6 °F 93% 30.18 in 6.2 mi West 11.5 mph - N/A   Scattered Clouds
4:30 AM 46.4 °F 41.1 °F 44.6 °F 93% 30.18 in 6.2 mi West 11.5 mph - N/A   Scattered Clouds
5:00 AM 46.4 °F 41.5 °F 44.6 °F 93% 30.21 in 6.2 mi West 10.4 mph - N/A   Scattered Clouds
5:30 AM 46.4 °F 41.9 °F 44.6 °F 93% 30.21 in 6.2 mi West 9.2 mph - N/A   Scattered Clouds
6:00 AM 48.2 °F - 46.4 °F 93% 30.21 in 6.2 mi West 11.5 mph - N/A   Scattered Clouds
6:30 AM 48.2 °F - 46.4 °F 93% 30.21 in 6.2 mi West 12.7 mph - N/A   Scattered Clouds
7:00 AM 49 °F - 47 °F 88% 30.23 in 16 mi West 13.4 mph - -   Scattered Clouds
7:00 AM 48.2 °F - 46.4 °F 93% 30.21 in 6.2 mi West 13.8 mph - N/A   Mostly Cloudy
7:30 AM 50.0 °F - 48.2 °F 94% 30.21 in 6.2 mi West 12.7 mph - N/A   Mostly Cloudy
8:00 AM 51.8 °F - 46.4 °F 82% 30.21 in 6.2 mi West 13.8 mph - N/A   Mostly Cloudy
8:30 AM 53.6 °F - 46.4 °F 77% 30.21 in 6.2 mi WNW 16.1 mph - N/A   Mostly Cloudy
9:00 AM 53.6 °F - 46.4 °F 77% 30.21 in 6.2 mi West 13.8 mph - N/A   Mostly Cloudy
9:30 AM 55.4 °F - 44.6 °F 67% 30.21 in 6.2 mi WNW 15.0 mph - N/A   Mostly Cloudy
10:00 AM 57.2 °F - 44.6 °F 63% 30.24 in 6.2 mi WNW 13.8 mph - N/A   Scattered Clouds
10:30 AM 57.2 °F - 44.6 °F 63% 30.24 in 6.2 mi WNW 13.8 mph - N/A   Mostly Cloudy
11:00 AM 59.0 °F - 46.4 °F 63% 30.24 in 6.2 mi WNW 13.8 mph 27.6 mph N/A   Mostly Cloudy
11:30 AM 55.4 °F - 44.6 °F 67% 30.24 in 6.2 mi WNW 13.8 mph - N/A   Mostly Cloudy
12:00 PM 57.2 °F - 44.6 °F 63% 30.24 in 6.2 mi WNW 12.7 mph - N/A   Mostly Cloudy
12:30 PM 59.0 °F - 46.4 °F 63% 30.24 in 6.2 mi West 12.7 mph - N/A   Mostly Cloudy
1:00 PM 60 °F - 45 °F 47% 30.26 in 31 mi West 11.2 mph - -   Mostly Cloudy
1:00 PM 60.8 °F - 44.6 °F 55% 30.24 in 6.2 mi West 11.5 mph - N/A   Mostly Cloudy
1:30 PM 59.0 °F - 46.4 °F 63% 30.24 in 6.2 mi West 13.8 mph - N/A   Mostly Cloudy
2:00 PM 59.0 °F - 44.6 °F 59% 30.24 in 6.2 mi West 11.5 mph - N/A   Mostly Cloudy
2:30 PM 59.0 °F - 44.6 °F 59% 30.24 in 6.2 mi WNW 8.1 mph - N/A   Mostly Cloudy
3:00 PM 59.0 °F - 46.4 °F 63% 30.24 in 6.2 mi NW 11.5 mph - N/A   Mostly Cloudy
3:30 PM 60.8 °F - 42.8 °F 52% 30.24 in 6.2 mi NW 9.2 mph - N/A   Mostly Cloudy
4:00 PM 60.8 °F - 44.6 °F 55% 30.24 in 6.2 mi WNW 6.9 mph - N/A   Mostly Cloudy
4:30 PM 60.8 °F - 42.8 °F 52% 30.24 in 6.2 mi WNW 9.2 mph - N/A   Mostly Cloudy
5:00 PM 60.8 °F - 44.6 °F 55% 30.24 in 6.2 mi WNW 9.2 mph - N/A   Mostly Cloudy
5:30 PM 60.8 °F - 46.4 °F 59% 30.24 in 6.2 mi West 8.1 mph - N/A   Mostly Cloudy
6:00 PM 60.8 °F - 44.6 °F 55% 30.24 in 6.2 mi West 6.9 mph - N/A   Mostly Cloudy
6:30 PM 60.8 °F - 44.6 °F 55% 30.24 in 6.2 mi North 5.8 mph - N/A   Mostly Cloudy
7:00 PM 60 °F - 44 °F 45% 30.26 in 31 mi ESE 6.7 mph - -   Mostly Cloudy
7:00 PM 60.8 °F - 44.6 °F 55% 30.24 in 6.2 mi ESE 6.9 mph - N/A   Mostly Cloudy
7:30 PM 59.0 °F - 44.6 °F 59% 30.27 in 6.2 mi ESE 8.1 mph - N/A   Mostly Cloudy
8:00 PM 59.0 °F - 44.6 °F 59% 30.27 in 6.2 mi ESE 8.1 mph - N/A   Scattered Clouds
8:30 PM 59.0 °F - 44.6 °F 59% 30.27 in 6.2 mi SE 5.8 mph - N/A   Scattered Clouds
9:00 PM 57.2 °F - 44.6 °F 63% 30.27 in 6.2 mi ESE 5.8 mph - N/A   Scattered Clouds
9:30 PM 55.4 °F - 44.6 °F 67% 30.27 in 6.2 mi ESE 4.6 mph - N/A   Mostly Cloudy
10:00 PM 51.8 °F - 44.6 °F 76% 30.27 in 6.2 mi ESE 4.6 mph - N/A   Scattered Clouds
10:30 PM 48.2 °F - 42.8 °F 82% 30.27 in 6.2 mi SE 4.6 mph - N/A   Scattered Clouds
11:00 PM 48.2 °F - 42.8 °F 82% 30.30 in 6.2 mi SSE 2.3 mph - N/A   Mostly Cloudy
11:30 PM 46.4 °F - 42.8 °F 87% 30.30 in 6.2 mi North 1.2 mph - N/A   Scattered Clouds